GFSFLT1_2pvu_pres_267.txt.gz
Presure
210 169 214 218 199 211 258 268 252 240 239 230 226 86 207 261 126 262 265 252 228 213 191 193 190 112 167 169 173 168 150 170
170 282 231 226 229 291 287 285 285 278 275 238 235 229 241 254 270 216 238 289 257 218 201 197 182 181 160 159 179 142 159 148
279 277 283 285 323 320 338 286 239 277 250 260 256 245 216 221 232 263 210 238 288 206 200 209 174 187 154 156 148 154 101 158
302 313 368 418 417 409 409 404 409 414 417 356 280 254 243 239 222 227 258 240 198 273 227 154 192 183 174 167 159 127 162 140
268 329 416 352 396 390 400 393 394 386 385 394 405 400 381 255 240 138 234 259 228 218 263 206 191 113 150 145 157 145 122 151
280 431 417 399 392 379 369 376 379 387 385 379 275 382 401 412 307 237 235 225 260 266 93 213 163 195 185 160 170 171 158 160
291 441 420 408 394 381 375 355 352 366 369 376 374 366 380 388 327 302 225 224 163 211 144 232 88 186 171 172 161 157 156 153
206 432 440 412 401 373 453 409 377 369 359 362 360 356 353 364 372 392 295 143 234 182 264 248 214 195 181 173 161 167 167 161
279 343 431 430 401 390 377 399 376 358 362 351 354 351 347 345 352 349 373 273 248 255 265 260 222 199 190 165 175 161 156 159
273 268 329 364 424 389 372 350 352 368 350 338 337 348 336 347 344 353 364 331 255 245 247 254 247 221 213 178 170 174 181 160
278 258 297 328 346 428 397 364 337 332 356 344 342 193 331 338 333 338 349 199 182 251 251 247 254 233 215 194 187 183 172 169
278 267 258 303 317 343 440 414 367 358 346 359 330 337 341 328 320 324 337 309 78 262 248 261 265 234 224 203 195 190 164 165
280 267 258 266 300 312 335 446 401 365 375 335 356 316 343 332 319 321 325 332 159 351 252 249 247 251 234 214 199 199 188 157
278 268 255 252 289 294 313 376 447 404 371 346 339 317 342 316 309 306 307 322 328 344 339 247 254 252 230 222 215 192 185 175
275 267 257 250 270 289 304 317 455 444 405 364 325 337 346 346 311 312 312 308 318 322 348 292 231 261 258 232 219 213 200 183
256 266 256 244 249 269 285 310 334 474 431 392 349 353 373 384 313 304 299 295 308 314 334 355 289 235 266 244 222 225 212 190
253 272 256 246 240 258 274 300 315 472 463 417 372 356 374 397 309 295 301 303 307 332 342 351 363 266 250 230 240 144 207 196
251 250 273 248 240 240 258 301 316 333 491 443 405 356 365 376 300 286 290 293 305 310 323 330 340 347 264 258 248 235 214 216
240 248 258 256 239 239 253 280 315 321 432 474 428 384 360 350 298 283 289 282 306 320 308 305 334 369 406 268 226 267 231 228

GFSFLT1_2pvu_pres_270.txt.gz
Presure
135 174 104 285 273 281 300 214 280 311 304 289 264 256 265 271 268 245 240 175 224 244 215 224 193 197 183 195 191 178 172 159
206 183 269 289 290 283 296 315 307 308 282 157 301 311 259 250 257 264 254 235 235 208 264 249 203 197 182 189 194 180 176 173
218 232 254 282 285 279 438 426 426 415 397 414 418 433 429 299 249 245 244 251 235 239 244 237 222 195 177 184 177 178 164 171
217 196 279 267 132 171 443 427 413 396 403 403 396 395 406 419 381 251 249 234 249 261 231 220 246 208 154 186 180 192 155 177
210 275 131 262 314 293 445 436 412 403 390 381 387 390 378 398 404 404 252 251 239 252 218 281 273 219 193 182 192 186 185 170
167 263 258 248 303 282 437 432 407 387 383 380 360 380 384 378 384 395 416 258 244 232 250 213 270 225 207 192 204 188 179 175
263 255 248 241 291 276 344 453 418 392 459 441 379 355 367 373 372 379 393 393 265 243 254 204 163 245 214 149 190 166 167 171
257 245 237 242 285 275 325 338 451 409 378 399 404 377 367 369 379 369 372 395 397 261 249 196 231 257 205 197 201 187 182 172
252 241 236 246 281 261 294 325 346 449 388 362 373 380 371 356 364 366 360 367 381 301 84 248 107 247 217 203 211 181 184 187
247 241 231 246 280 264 261 326 327 347 437 383 357 366 369 356 355 361 351 355 365 373 269 262 261 278 220 204 197 191 178 179
247 241 231 256 285 261 246 270 324 328 482 426 367 368 364 363 352 355 357 350 356 361 358 128 196 253 230 211 186 193 172 187
248 245 237 275 296 267 250 264 310 332 342 470 408 362 348 362 352 363 346 354 257 354 361 280 85 262 236 223 204 194 190 185
248 243 234 272 283 270 254 252 305 324 333 500 446 376 368 345 364 351 341 344 344 351 344 357 120 251 254 229 204 202 192 172
245 239 232 268 280 265 251 250 281 320 330 353 472 415 379 326 347 362 349 343 333 338 340 345 271 250 261 250 215 202 195 186
243 238 231 263 271 262 249 250 293 316 338 343 488 444 381 322 337 344 368 336 327 330 336 330 345 263 253 279 213 204 204 194
239 233 238 260 263 259 243 246 322 325 322 353 448 461 417 359 351 371 385 343 324 318 330 326 338 272 261 267 224 227 205 189
236 228 255 262 254 253 246 269 301 325 322 348 366 478 438 375 350 375 388 336 317 315 320 327 329 337 268 258 244 220 209 190
231 231 253 255 249 252 242 252 298 322 326 328 349 490 457 413 350 369 389 338 319 317 312 315 320 332 270 262 262 241 219 202
227 239 250 247 246 248 249 254 263 296 314 332 346 428 471 438 374 363 379 313 313 304 300 307 319 328 344 272 255 267 231 214

GFSFLT1_2pvu_pres_273.txt.gz
Presure
102 181 183 214 213 236 237 258 288 135 276 149 328 415 425 356 311 280 275 272 258 290 265 229 226 213 182 181 190 198 184 184
168 213 136 247 234 233 211 72 274 270 283 367 227 418 431 436 453 321 286 269 271 251 280 255 205 217 199 182 182 188 183 194
204 254 240 228 243 203 280 272 199 266 402 458 438 420 409 424 426 436 432 286 269 272 250 269 238 226 204 190 187 189 198 192
215 180 209 212 287 281 275 267 261 302 306 435 427 261 410 403 415 412 419 416 283 268 259 278 242 228 209 193 198 198 202 193
136 223 254 274 284 255 273 268 255 291 289 368 459 398 453 391 393 400 417 409 386 288 273 259 269 231 211 228 187 202 178 197
240 218 248 240 237 279 270 263 287 286 279 317 429 416 391 419 375 388 400 407 404 350 273 262 276 244 222 239 197 195 190 197
284 258 240 278 277 268 262 252 297 276 268 358 356 458 395 427 393 366 384 399 400 396 112 179 260 270 250 217 220 207 191 202
258 237 275 273 264 263 252 290 286 270 263 353 351 462 434 372 410 385 373 315 361 398 384 273 265 253 234 223 249 122 194 205
237 228 215 269 260 259 250 284 280 268 261 352 349 469 444 394 367 381 382 373 383 390 396 327 268 259 263 162 235 196 207 200
227 250 270 261 255 252 282 279 276 261 332 299 353 367 461 413 365 362 383 372 375 383 388 395 270 264 252 257 220 238 206 206
221 212 205 255 252 251 278 270 264 277 332 341 349 359 473 415 381 358 372 364 370 368 379 384 387 264 265 205 254 260 215 206
231 261 254 251 251 276 269 267 264 251 332 332 347 364 480 419 371 363 361 359 368 363 368 368 379 275 263 232 249 253 233 213
268 255 250 247 257 268 266 291 256 242 324 334 354 368 485 430 384 367 338 366 355 357 366 360 368 366 268 243 259 209 234 213
258 250 246 248 263 271 268 281 266 272 335 345 341 362 488 446 386 367 323 360 338 364 350 367 354 349 336 258 259 272 240 225
231 247 243 260 255 267 286 296 291 309 318 346 352 352 496 456 397 366 335 337 334 356 349 356 349 348 355 272 252 257 258 225
247 243 255 250 263 286 254 283 294 289 314 326 350 361 383 469 418 366 339 346 342 334 353 351 343 346 337 350 250 254 254 225
240 253 242 280 272 254 265 274 280 299 291 307 343 354 369 484 443 376 349 350 379 327 337 349 334 333 342 324 263 252 254 226
246 241 285 260 254 264 264 263 269 277 292 306 313 355 364 474 471 411 350 360 373 368 345 335 326 325 334 336 294 244 255 245
245 246 258 260 258 260 249 274 269 267 277 288 315 324 374 368 486 456 370 355 371 367 336 329 322 322 322 324 333 263 250 261

GFSFLT1_2pvu_pres_276.txt.gz
Presure
126 164 148 155 199 220 236 234 217 128 269 256 272 113 331 329 325 451 460 450 317 321 267 281 212 272 221 213 192 177 176 172
168 181 163 156 224 204 207 251 264 254 254 293 290 326 327 319 312 444 438 443 452 311 320 166 270 266 234 212 195 179 177 194
152 202 205 226 232 144 259 228 231 243 243 281 291 317 164 301 340 432 417 428 429 440 346 288 274 250 264 225 198 200 181 171
200 221 223 243 261 223 241 254 241 266 289 302 304 312 304 298 444 442 400 407 418 413 434 310 270 266 256 245 217 200 182 203
223 220 204 251 219 230 253 251 238 265 281 314 305 295 302 373 455 451 415 408 415 404 411 425 287 277 246 240 225 211 182 199
266 252 254 249 213 262 255 277 283 282 303 326 363 294 373 384 463 453 399 452 404 400 390 404 317 258 250 266 230 213 183 204
231 233 246 225 255 252 284 278 278 290 310 368 294 314 368 392 501 453 400 432 401 393 393 391 401 264 259 257 243 219 210 162
238 211 254 253 257 281 274 270 287 298 336 345 366 371 371 444 498 445 410 368 406 365 393 386 393 354 268 249 259 225 212 112
202 248 273 274 279 267 266 276 298 307 326 324 350 370 380 448 491 434 410 371 403 386 374 391 388 396 269 249 258 236 93 206
232 263 282 278 267 263 267 280 319 314 319 329 350 383 381 512 473 429 407 371 360 388 382 377 389 389 276 247 258 245 230 208
237 282 275 266 258 266 281 281 285 294 308 319 330 377 380 506 464 428 392 366 351 377 382 380 384 391 372 254 262 243 230 213
272 274 264 253 257 267 252 290 278 276 294 321 325 370 385 505 464 424 393 377 354 374 361 368 377 385 393 274 253 272 227 217
274 266 250 256 252 272 269 270 279 268 299 295 320 348 397 429 469 420 391 378 354 367 357 361 372 370 387 336 249 277 235 219
270 250 256 270 268 266 263 271 260 262 276 281 303 334 391 385 476 426 388 373 332 361 356 353 369 369 376 381 248 261 238 220
255 255 273 260 246 251 255 256 267 262 264 273 293 316 357 399 498 453 393 377 353 344 358 346 353 366 376 373 336 243 259 243
256 269 263 240 244 251 258 261 256 242 263 262 276 285 330 388 419 480 407 371 364 336 345 337 355 354 374 367 357 252 253 262
277 258 240 250 252 252 242 250 254 258 260 257 266 281 302 353 422 505 458 376 353 354 348 345 351 351 365 360 357 356 244 258
247 252 247 243 232 237 234 249 244 252 250 256 259 271 282 317 404 430 490 425 350 367 383 381 349 349 353 347 347 365 250 253
246 236 225 235 236 237 242 240 247 244 244 244 259 260 287 295 365 442 513 473 377 361 382 389 342 347 346 339 339 365 370 249

GFSFLT1_2pvu_pres_279.txt.gz
Presure
136 124 153 172 200 210 231 224 238 255 255 153 282 310 316 318 315 266 293 353 339 336 327 299 274 261 236 260 253 235 210 199
221 160 156 205 215 205 229 218 252 223 216 297 292 330 335 384 411 406 399 331 322 316 312 322 307 256 252 188 236 225 129 195
183 208 213 137 229 223 256 234 275 293 276 302 311 320 364 384 411 412 397 368 332 309 314 447 462 320 250 258 227 231 201 198
163 219 207 215 260 215 241 230 283 263 294 298 338 352 362 374 405 397 402 412 407 382 425 432 436 317 282 262 234 241 200 202
217 204 226 256 212 238 247 269 291 282 284 294 297 349 358 385 409 402 410 518 488 437 416 411 422 438 333 254 268 250 212 199
231 253 247 204 220 222 245 288 280 287 308 304 313 332 358 406 409 530 509 496 462 416 453 214 411 420 341 248 251 249 221 194
261 250 231 204 247 241 281 279 267 289 292 293 297 328 354 404 403 515 478 469 442 400 438 387 405 405 379 275 270 204 234 205
246 237 210 232 286 289 283 268 274 283 282 288 296 306 341 404 408 497 459 442 428 387 426 384 397 395 403 306 285 259 243 213
234 227 227 236 277 280 275 252 285 282 279 284 289 301 323 400 482 483 447 422 415 379 407 388 380 387 392 356 280 258 257 218
188 216 225 271 284 277 249 270 279 271 271 273 288 292 320 394 420 476 442 411 401 375 368 396 369 392 388 397 268 254 173 225
225 280 273 285 269 244 253 268 270 268 267 270 268 291 309 339 427 488 437 405 392 371 361 395 371 373 392 398 276 274 270 238
233 281 275 277 242 264 240 257 260 257 255 265 266 272 304 324 427 499 442 403 379 368 361 365 391 373 380 391 304 280 249 264
284 264 286 245 257 244 259 255 261 253 256 266 273 269 285 323 419 435 471 409 373 377 362 365 382 386 382 392 407 269 249 281
266 280 251 257 236 251 235 251 242 246 252 265 264 265 284 303 351 441 507 420 376 362 348 364 370 370 376 386 398 273 256 266
279 265 236 221 232 232 238 239 245 241 250 248 262 272 277 299 328 438 468 475 389 359 329 355 365 365 369 379 386 326 279 258
255 240 241 238 243 239 244 241 238 233 245 242 245 249 269 287 318 431 458 508 412 371 348 341 357 361 367 370 379 391 274 249
251 229 238 238 246 230 228 231 234 237 237 236 248 240 262 269 309 349 455 518 477 377 356 344 342 353 359 367 375 382 256 253
225 239 216 236 238 238 237 237 233 234 245 240 241 249 250 272 284 332 457 520 497 423 351 367 364 342 357 363 369 383 352 269
220 216 226 234 230 226 218 222 223 236 235 228 251 246 256 255 274 298 458 510 505 466 372 368 381 350 361 358 367 368 365 299

GFSFLT1_2pvu_pres_285.txt.gz
Presure
144 145 161 154 110 167 216 215 169 260 249 204 252 244 291 287 287 289 304 322 355 568 554 563 486 451 435 373 349 272 252 248
139 158 180 95 192 191 211 238 268 256 252 249 274 278 278 289 286 291 311 341 461 519 510 524 469 440 423 421 343 277 244 251
137 126 173 159 140 215 249 264 181 247 244 297 270 278 275 278 280 288 318 359 513 493 481 500 460 410 418 423 309 335 244 238
182 183 171 139 214 154 263 246 216 233 271 272 273 269 266 279 277 289 323 385 503 473 460 479 501 428 412 417 336 327 240 245
160 183 228 216 239 271 226 249 232 274 280 248 267 278 272 282 282 303 325 441 494 455 444 457 478 419 412 415 338 321 277 253
182 212 208 215 194 261 248 237 254 257 261 264 256 264 258 280 283 306 327 455 492 441 432 442 454 457 414 408 410 315 307 231
201 243 194 191 258 224 240 246 259 273 270 272 259 264 264 266 289 305 336 469 500 427 422 432 436 441 403 405 413 319 218 226
245 226 199 260 235 264 276 266 248 229 258 255 256 257 270 268 290 307 345 486 518 417 411 423 420 424 445 433 360 316 255 227
203 263 261 244 235 278 267 242 240 254 242 249 250 258 255 269 284 309 346 504 528 415 403 413 403 415 437 422 337 309 319 278
229 221 167 233 249 259 247 268 255 253 243 245 243 255 258 266 282 309 356 515 529 414 397 395 389 415 431 414 316 333 311 265
246 185 231 283 261 260 273 252 242 244 244 246 251 250 257 259 278 297 367 526 527 420 392 383 380 415 421 405 313 322 305 284
224 230 279 261 264 248 246 246 237 238 230 245 256 252 253 256 268 293 351 534 524 433 386 378 370 407 402 397 392 313 340 269
231 280 263 253 227 239 238 241 234 229 240 241 246 259 260 255 267 281 319 532 522 462 387 384 369 398 399 392 397 302 321 277
285 263 255 231 206 247 259 231 235 218 225 232 240 247 261 260 259 275 299 531 520 485 395 384 369 365 398 387 390 319 306 267
268 255 234 222 239 208 228 227 220 228 219 225 240 243 247 263 257 266 282 479 520 497 404 382 351 370 375 395 375 387 303 265
251 234 225 235 214 233 224 226 227 222 217 220 219 237 245 249 262 264 274 310 523 507 434 387 368 346 376 385 397 379 398 274
242 226 212 219 227 222 217 202 223 222 219 220 220 220 231 247 245 272 265 280 324 514 479 381 374 357 368 375 379 388 391 401
225 221 216 201 172 217 220 215 216 211 213 215 218 225 218 228 249 247 278 267 285 516 498 425 368 366 360 371 375 380 389 362
223 216 214 181 204 210 201 217 212 210 210 212 214 214 224 216 229 250 245 278 271 293 508 483 377 386 387 363 366 377 389 394